Wind_Speed
68 67 66 65 64 64 63 62 62 61 61 60 60 59 60 61 62 65 68 71 73 76 79 81 83 84 86 87 90 93 95 97 98 99 101 103 104 105 105 105 105 103 103 103 103 103 103 103 103 104 103 103 101 100 98 96 93 91 88 86 81 79 79 80 81 79 77 76 74 72 71 68 66 64 61 59 57 55 53 51 48 46 45 45 44 42 41 39
67 65 64 63 63 62 61 60 60 59 59 58 58 57 58 58 59 61 63 66 69 71 74 77 80 82 84 85 87 90 93 94 95 97 99 101 102 103 105 106 106 105 104 103 103 103 103 103 103 104 104 104 103 102 100 98 96 93 90 87 83 81 82 85 86 84 80 78 76 75 74 70 68 67 64 62 60 58 55 53 51 49 48 47 46 45 43 42
65 63 62 62 61 60 59 59 58 58 57 56 56 55 56 56 57 58 60 62 64 67 69 72 76 79 81 83 84 87 89 91 93 94 96 98 100 101 103 105 106 106 106 105 103 103 103 103 103 104 104 104 104 104 102 100 99 97 94 89 85 85 86 89 89 87 84 81 78 77 76 73 71 69 67 66 63 61 60 56 53 51 50 50 49 48 46 45
62 62 61 61 60 59 58 57 57 56 56 55 54 54 54 55 56 57 58 59 61 63 65 68 71 74 77 80 82 84 86 88 90 92 93 96 97 99 101 103 106 107 107 106 105 104 103 103 103 104 104 105 105 105 103 101 101 100 96 92 89 89 89 91 92 90 87 83 80 78 77 76 74 71 70 68 67 66 64 60 56 54 54 53 52 51 49 48
61 60 60 59 58 57 57 56 56 55 55 54 53 53 52 53 54 55 57 58 60 61 62 64 67 70 73 76 79 82 83 85 86 88 91 93 95 97 99 101 104 106 108 108 107 106 105 104 103 104 104 105 105 105 104 102 102 101 97 93 92 92 91 93 95 93 89 85 82 80 79 78 76 74 72 71 70 70 68 63 61 59 58 57 55 54 52 51
59 59 58 58 57 56 55 55 55 54 54 54 53 51 51 51 52 53 55 57 59 60 62 63 64 67 69 72 75 78 80 82 82 84 88 90 92 95 97 99 102 105 107 108 108 107 106 105 105 104 104 104 105 104 104 103 102 101 99 95 93 94 94 95 97 95 91 87 84 82 81 79 78 76 75 73 73 74 71 67 65 63 61 60 58 56 55 53
58 57 56 55 55 55 54 54 54 54 53 53 52 50 49 49 50 51 54 56 58 60 61 63 64 65 67 69 72 74 77 78 78 81 86 88 90 93 95 98 100 103 105 107 108 109 108 107 106 106 105 104 104 104 104 104 103 101 100 97 94 94 95 98 99 97 93 89 87 85 83 81 80 79 77 76 76 76 73 70 69 66 64 63 61 59 58 56
56 55 54 54 54 53 53 53 53 53 53 52 51 49 48 47 48 49 52 55 57 59 61 62 63 65 66 68 69 71 73 74 75 79 83 85 88 90 93 95 97 100 103 104 106 109 110 109 108 107 106 105 104 103 103 103 103 101 100 99 96 95 97 99 100 98 95 92 89 87 85 84 83 81 79 78 79 78 75 73 71 69 68 66 64 62 61 60
53 52 52 52 52 52 51 51 52 53 53 52 51 48 46 45 45 46 49 52 55 58 60 61 63 65 66 67 68 69 70 71 73 76 79 82 85 87 90 92 95 98 100 102 104 106 109 110 110 109 108 106 105 103 103 103 102 101 100 99 97 96 98 100 101 100 98 95 93 90 88 87 86 83 81 80 81 79 77 75 73 72 70 69 66 65 64 63
50 50 50 51 50 50 50 50 52 53 54 52 50 47 45 44 43 44 47 50 53 57 59 61 63 65 66 67 68 68 68 69 71 72 75 79 82 84 87 89 92 95 97 100 102 104 107 109 110 110 109 108 107 105 104 103 102 100 99 99 99 98 99 101 102 102 101 98 96 93 91 90 89 84 82 82 83 81 79 77 75 74 72 71 69 67 67 66
48 48 49 49 48 48 49 50 53 54 53 51 48 45 43 42 42 43 46 49 52 56 58 60 63 65 66 67 68 68 67 67 68 69 72 76 79 81 83 86 89 92 95 97 100 102 104 107 109 111 111 110 109 107 105 104 101 99 98 99 99 99 100 101 103 104 103 101 98 96 94 93 90 86 83 84 85 84 81 79 77 75 74 73 72 70 69 68
46 47 47 47 47 48 49 51 53 54 53 50 47 43 42 41 42 43 46 49 52 56 58 61 63 65 66 67 67 67 66 65 65 67 70 73 75 78 80 82 85 88 91 94 97 100 103 105 107 110 112 111 110 109 107 105 102 99 98 98 99 100 101 102 103 104 104 103 101 99 97 94 91 88 86 87 87 86 83 80 78 76 75 74 73 72 71 70
44 45 45 46 47 48 50 52 54 54 52 49 45 42 41 42 43 45 47 50 53 56 58 61 63 65 66 67 66 66 65 64 64 65 67 70 72 75 77 80 83 86 89 92 95 98 101 103 105 108 111 112 112 111 108 106 103 100 98 98 99 100 101 103 104 104 105 105 103 101 99 95 92 90 89 89 89 87 85 83 81 78 77 76 75 74 74 73
42 43 44 45 46 48 50 52 53 53 51 47 44 43 43 44 45 45 47 50 53 56 58 60 62 64 65 66 65 65 65 64 63 63 65 67 69 72 75 78 80 83 86 90 92 95 98 101 103 106 108 110 112 112 110 107 104 102 99 99 99 100 101 103 103 104 105 106 105 103 100 96 94 92 91 91 90 89 87 86 84 81 79 77 77 76 76 75
41 43 44 45 46 48 50 51 52 52 50 47 45 45 46 46 45 45 46 48 51 54 56 58 60 62 63 64 64 63 63 63 62 62 63 64 66 68 73 77 79 82 85 88 91 93 96 98 101 103 106 108 111 113 111 109 106 104 102 100 100 100 101 102 103 104 105 106 106 104 101 98 97 95 94 93 92 90 89 88 87 85 82 80 79 77 77 77
41 42 43 45 46 47 48 50 51 52 50 48 46 47 48 47 44 42 43 45 48 51 53 54 55 57 60 61 61 61 61 62 62 62 62 63 63 66 70 75 79 82 84 86 90 92 93 95 98 101 103 105 109 112 112 110 109 107 104 103 101 100 101 102 103 104 104 105 105 104 101 100 100 99 97 95 94 92 90 90 89 88 86 83 81 80 79 78
40 42 43 44 45 45 46 48 51 51 51 49 49 50 49 47 43 40 40 41 43 46 48 49 50 52 55 57 58 58 59 60 60 60 61 61 62 64 68 73 78 82 84 86 88 90 91 93 95 98 101 103 106 109 111 112 111 109 107 105 102 101 101 101 102 103 103 103 103 103 101 100 101 102 101 98 96 94 92 91 91 90 89 87 84 82 81 80
40 41 42 43 43 43 45 47 50 52 52 50 50 51 51 47 43 39 37 37 38 41 43 44 45 47 50 53 56 57 57 58 59 59 60 60 60 63 67 71 76 81 85 87 87 88 89 91 94 96 98 101 104 107 110 111 111 110 109 107 104 102 101 101 101 102 102 101 101 101 100 100 101 101 102 101 99 97 95 93 92 92 91 90 87 86 85 84
40 41 41 40 40 42 45 47 50 52 54 53 51 52 52 47 43 38 34 33 34 35 38 40 41 43 46 49 53 55 56 57 57 58 59 59 60 62 65 70 74 79 83 87 88 88 89 91 93 95 96 99 101 104 107 108 109 110 110 108 106 104 102 101 101 101 101 100 99 99 99 99 99 99 100 101 100 98 97 96 95 94 93 92 90 89 88 87
39 39 38 38 39 42 44 46 49 52 54 55 54 54 52 46 43 39 33 30 29 29 31 33 35 37 40 44 49 52 55 56 57 57 58 58 59 60 64 68 72 77 81 85 88 90 91 92 94 95 95 97 98 101 103 105 107 109 110 110 108 105 104 102 101 102 101 100 98 98 97 96 97 97 98 99 99 98 97 97 97 96 95 94 93 92 91 90
38 37 36 37 39 42 44 46 49 52 54 55 55 55 53 49 46 41 35 30 27 24 24 25 28 31 34 38 42 47 50 53 55 56 57 57 58 60 62 66 70 75 79 82 87 91 93 93 94 94 95 95 96 98 100 103 105 108 110 111 110 108 106 104 103 102 101 99 98 97 95 94 94 95 95 96 97 98 97 97 97 97 96 96 95 94 93 92
35 34 34 36 38 41 43 45 48 51 54 56 55 55 55 53 50 43 36 31 26 21 19 18 21 24 28 32 36 40 44 48 51 53 54 56 57 59 61 64 68 72 77 81 85 90 94 94 94 94 95 95 95 96 98 100 103 107 109 111 112 111 109 107 105 104 102 99 97 96 94 92 92 92 93 94 96 98 98 97 97 96 97 97 97 97 95 94
32 31 33 35 38 41 42 44 47 50 54 56 56 56 54 55 52 43 39 35 29 23 18 15 15 18 22 26 31 35 38 42 45 48 50 53 55 57 59 62 66 70 75 79 83 88 92 94 95 95 95 95 95 96 97 98 101 104 107 110 112 112 112 110 108 105 103 100 97 95 93 92 92 92 92 93 94 96 98 98 97 97 97 98 99 99 98 96
30 30 32 34 37 40 42 43 46 50 54 56 58 57 54 56 53 44 42 39 31 26 21 16 13 13 16 20 25 29 33 37 40 43 46 49 51 54 57 60 63 68 72 77 81 85 89 93 95 96 95 95 96 96 96 97 99 102 105 108 110 112 113 112 110 107 104 101 98 96 93 92 93 93 92 92 93 95 97 98 98 98 98 98 99 100 100 99
29 29 31 34 37 39 41 43 46 49 53 55 58 58 55 56 54 49 46 41 33 30 26 19 14 12 12 14 18 23 28 32 35 39 42 45 47 50 54 57 60 65 69 74 79 83 87 91 95 97 97 96 96 96 96 97 98 100 103 106 108 110 112 113 112 109 106 103 100 97 95 94 93 93 92 92 92 94 96 98 99 99 99 99 100 101 102 101
28 29 31 34 36 39 40 43 45 48 52 54 58 59 57 57 55 53 49 43 40 38 31 23 16 13 11 11 13 17 22 27 31 34 38 41 44 47 50 53 57 61 66 71 75 79 84 89 93 96 97 97 96 96 97 97 98 99 101 104 106 108 110 112 113 112 109 106 102 99 97 95 94 93 93 92 92 94 96 98 99 100 100 100 101 102 103 103
27 28 31 34 36 38 40 42 44 47 50 53 57 58 58 58 55 55 54 51 49 44 35 26 18 14 12 10 10 13 17 22 26 30 34 37 40 42 46 49 53 57 62 67 71 76 81 86 90 93 96 97 97 97 97 97 97 98 99 101 104 106 108 109 112 113 111 109 105 102 100 97 95 95 95 94 94 95 96 98 99 100 101 102 102 102 103 103
27 29 32 34 36 38 40 42 44 46 49 52 55 56 58 59 55 58 60 58 54 47 39 31 22 16 12 10 10 11 13 17 21 25 29 32 35 38 41 45 49 53 58 62 67 71 76 82 86 90 94 96 97 97 97 97 97 97 97 99 101 103 105 107 109 111 112 110 108 106 103 100 98 98 97 96 97 97 97 99 100 100 101 102 103 103 103 103
27 29 32 34 37 38 40 42 43 45 47 50 52 54 57 58 56 61 61 57 54 49 43 36 26 19 13 10 10 10 11 13 16 19 23 27 30 34 37 41 45 49 53 57 62 66 72 78 83 88 91 95 97 98 98 98 97 96 97 98 99 101 103 104 106 109 110 111 111 109 106 103 101 100 100 99 99 99 99 100 100 100 101 101 102 103 103 103
28 30 33 35 37 38 39 41 42 44 46 48 50 52 55 56 58 61 58 54 52 49 46 40 32 24 17 12 10 9 10 11 13 15 18 22 26 29 33 37 41 45 49 53 57 62 68 74 79 84 88 92 95 97 98 98 97 97 97 97 98 99 101 102 104 106 108 110 112 112 110 107 104 102 102 102 102 101 101 101 101 101 100 101 102 103 103 103
29 31 33 36 37 37 38 40 41 43 45 46 48 50 52 53 57 57 55 53 51 50 49 45 39 32 24 17 12 10 9 9 10 12 14 17 20 24 28 32 36 40 44 48 53 58 63 69 74 79 83 88 92 95 98 98 98 97 97 97 98 99 99 100 102 104 106 109 111 113 113 110 107 105 105 105 105 104 103 102 102 102 102 102 102 103 103 103
29 31 33 35 36 37 37 39 40 42 43 44 46 48 49 50 52 51 53 54 51 51 50 48 44 39 32 23 16 12 10 8 8 9 11 14 17 20 23 27 32 36 40 44 49 53 58 64 69 74 78 83 88 92 96 98 99 98 97 97 98 98 98 99 100 102 105 107 110 112 113 112 111 109 109 108 108 106 105 104 104 104 104 103 103 102 102 102
29 30 32 34 35 36 36 38 39 40 42 42 44 45 46 48 47 47 51 53 53 52 50 49 46 42 37 30 24 18 13 9 7 7 8 10 13 16 19 23 27 31 35 39 44 49 54 59 64 69 74 79 84 89 93 97 99 99 99 99 98 98 98 99 100 101 103 106 108 110 111 112 113 113 112 111 110 109 108 108 107 107 106 105 104 103 102 102
30 31 32 33 34 34 36 37 38 39 39 40 42 42 44 45 44 45 48 50 52 52 51 50 47 44 40 36 31 26 20 14 10 7 6 7 9 12 16 19 22 26 30 34 39 44 49 54 59 64 69 74 80 84 89 94 98 100 100 100 100 99 99 99 100 100 102 103 105 107 109 112 114 115 114 113 113 112 111 111 110 110 108 106 105 103 102 102
30 31 32 32 33 34 35 36 37 37 37 38 39 39 40 41 42 44 45 46 48 50 50 50 48 46 44 40 36 32 28 22 16 11 8 6 6 8 11 14 18 22 25 29 33 38 43 48 53 59 64 69 75 80 85 90 94 98 101 101 101 100 100 100 100 100 101 102 103 105 108 111 113 115 116 116 115 115 114 114 113 112 110 108 106 105 103 103
30 31 31 32 33 33 33 34 34 35 35 36 36 36 37 38 40 42 43 44 45 46 47 48 48 48 46 42 40 37 34 29 24 18 13 9 6 5 6 9 12 16 20 25 28 33 37 42 48 53 58 63 69 74 80 85 90 95 98 101 102 101 101 101 101 101 101 101 103 105 107 109 112 114 116 117 117 118 118 117 115 114 112 110 109 108 106 105
28 29 30 31 31 31 32 32 32 33 35 35 34 35 36 37 38 39 40 42 43 44 45 45 46 47 46 44 42 39 36 33 30 26 20 15 11 7 5 5 7 10 15 19 23 28 32 37 42 47 52 57 62 68 74 80 85 90 95 99 101 102 102 102 102 102 102 102 103 104 105 107 110 114 116 117 119 120 120 119 117 116 114 112 112 111 110 109
28 28 29 29 29 30 30 31 31 33 33 32 33 34 35 35 36 37 37 39 40 42 42 42 43 44 44 45 44 41 39 37 34 31 27 24 19 13 9 6 5 7 10 13 17 22 27 32 37 42 47 51 56 62 67 74 80 85 90 95 98 101 102 103 103 103 103 103 103 103 104 106 109 113 116 118 120 121 121 120 119 118 117 115 114 114 113 112
28 28 28 28 29 29 29 30 31 32 31 32 33 34 33 34 34 34 35 36 37 39 40 40 41 41 41 42 43 43 42 40 38 35 32 29 25 21 16 11 7 6 7 9 12 16 20 26 31 36 42 46 51 56 61 67 73 79 84 89 94 97 100 102 103 103 103 103 103 104 105 107 110 114 117 119 119 119 120 120 120 120 119 118 117 117 116 115
29 29 29 28 28 29 29 30 30 30 30 31 33 32 32 32 32 32 33 33 34 35 37 38 38 38 38 39 40 41 41 41 39 37 35 32 29 27 23 19 14 10 7 6 8 11 15 19 24 30 36 41 46 51 56 61 66 72 77 82 88 92 96 99 101 102 103 103 104 104 104 107 111 114 116 118 118 117 117 118 120 121 121 121 120 120 119 118
30 29 29 29 29 29 30 31 31 31 31 31 31 31 31 31 30 30 31 31 32 32 33 35 35 36 36 36 36 37 38 38 39 38 37 35 32 30 27 24 21 18 13 9 6 7 10 14 18 23 28 33 39 44 50 55 60 65 70 76 81 86 90 94 97 99 101 102 103 103 103 108 113 114 115 116 115 114 115 116 119 121 122 124 124 123 123 122
30 30 30 30 30 30 30 31 32 32 32 32 31 30 30 30 30 29 29 30 30 30 31 31 32 33 34 33 33 34 34 35 36 37 38 37 36 34 31 28 25 23 20 16 12 9 7 9 13 17 21 25 30 36 41 47 52 58 64 69 74 79 84 88 92 95 98 100 101 102 102 106 112 114 113 114 113 112 113 114 117 120 122 124 126 126 126 125
32 31 31 31 31 31 31 31 32 32 33 33 32 32 31 30 29 28 28 28 28 29 29 29 29 30 31 32 32 32 32 32 34 35 35 35 35 35 34 32 29 26 23 20 18 15 11 8 8 12 16 20 24 29 34 39 44 50 56 62 67 72 77 82 86 90 93 96 98 99 99 103 110 113 112 113 111 111 113 114 116 118 121 123 126 128 129 128
33 32 32 31 31 30 30 31 31 31 32 33 33 33 33 31 30 28 27 27 27 27 27 27 27 28 29 30 31 31 31 31 31 32 32 32 33 33 34 33 32 30 26 23 21 18 16 13 10 8 10 14 18 23 28 33 38 43 49 54 59 65 70 74 79 83 87 90 93 95 96 100 107 112 112 112 111 111 113 115 116 118 119 122 125 127 129 130
34 33 32 32 31 30 30 29 29 30 30 31 32 33 33 33 31 30 28 27 26 26 26 26 26 27 27 28 29 30 31 31 30 30 30 31 31 32 32 31 31 30 29 27 25 22 19 16 13 11 9 9 12 17 22 27 32 36 42 47 52 58 63 68 72 77 81 85 89 92 94 96 103 109 110 110 109 111 113 116 118 119 119 120 123 126 128 130
36 35 33 32 31 30 29 29 29 29 29 30 31 32 32 33 33 32 31 29 27 25 25 25 25 26 26 27 28 29 29 30 31 30 29 29 29 30 30 29 29 28 27 26 26 25 23 20 17 15 13 10 9 11 14 19 24 29 34 39 44 49 54 59 64 68 74 78 83 88 91 93 99 105 107 106 108 110 114 116 118 119 120 120 122 124 127 129
37 35 34 32 31 30 29 28 27 28 28 29 30 30 31 32 33 33 32 31 29 27 26 25 25 25 25 26 26 27 27 29 30 30 31 31 30 30 31 31 31 29 27 25 23 22 22 21 20 19 18 16 13 11 11 14 17 21 26 31 36 41 46 51 55 60 65 70 75 81 84 87 93 99 102 103 106 110 113 115 117 119 120 121 123 124 126 129
39 38 36 35 33 31 30 29 28 28 28 30 31 31 32 32 33 34 33 33 32 30 29 28 27 27 26 26 26 26 27 27 28 29 29 30 30 31 32 32 33 32 31 29 26 23 21 19 19 19 19 19 19 17 16 15 15 17 20 23 27 32 37 42 47 52 57 62 66 72 76 79 84 90 96 100 103 107 111 114 116 118 120 121 123 125 127 129
43 42 42 41 39 37 35 34 33 33 32 33 35 36 35 35 34 34 34 34 34 33 32 30 29 29 29 29 28 28 28 28 28 28 28 29 29 29 31 32 34 35 35 34 31 28 25 21 18 18 17 17 18 19 19 19 19 19 19 20 22 25 28 33 37 43 48 52 58 63 68 72 76 81 89 94 98 102 107 111 114 116 118 120 123 125 127 129
45 46 46 46 45 43 42 41 40 39 38 37 38 40 40 39 38 37 37 37 36 35 33 32 30 30 30 30 30 30 30 30 31 31 31 31 30 30 30 32 35 37 38 38 36 35 33 29 24 21 18 17 17 17 18 19 20 21 22 23 23 23 25 28 31 34 38 42 47 53 59 64 69 74 80 85 89 94 99 105 109 113 116 118 121 124 126 128
46 47 47 48 48 48 47 46 45 44 43 43 43 43 43 43 43 42 41 41 40 39 37 34 32 31 31 31 32 33 33 33 33 34 35 35 34 33 32 33 35 38 40 41 41 41 41 40 36 32 26 21 18 18 19 18 18 18 20 22 24 25 26 28 29 30 32 35 39 44 49 55 61 66 71 78 82 86 91 97 102 106 110 113 117 121 123 126
45 46 47 48 49 49 49 49 48 47 47 47 48 48 47 46 44 43 42 41 41 41 40 38 36 33 32 32 34 35 35 34 34 35 36 37 37 36 35 35 37 39 41 43 44 44 46 47 46 45 41 34 28 24 23 23 21 19 18 19 21 24 27 29 30 30 31 33 35 38 42 46 51 56 62 69 74 79 84 90 95 99 102 105 110 114 118 121
Wind_Direction
295 294 292 290 289 287 286 283 281 279 277 275 273 270 267 264 262 259 257 256 254 253 253 252 251 249 247 245 244 243 243 242 240 239 239 238 238 238 237 237 237 236 235 234 234 234 234 234 235 236 236 236 236 235 234 233 233 233 233 233 232 232 233 233 233 232 232 233 233 233 233 233 232 232 232 233 234 236 236 236 235 235 237 237 239 240 240 241
295 294 292 291 290 288 286 284 282 280 278 277 275 273 270 267 264 261 259 257 255 254 253 252 251 250 248 246 244 243 242 242 240 239 238 238 237 237 237 236 236 236 235 235 234 234 233 233 233 235 235 235 235 235 234 233 233 233 232 232 232 231 232 232 233 232 231 232 232 233 233 233 233 233 233 233 234 236 236 236 235 235 236 238 238 239 239 240
295 294 293 292 291 289 287 285 283 281 280 278 276 274 272 269 267 264 261 258 256 254 253 252 251 250 249 247 245 243 242 241 240 239 238 237 236 236 235 235 236 236 235 235 234 234 233 233 233 233 234 234 234 235 234 233 233 232 231 231 230 230 231 232 233 233 231 231 231 232 233 233 233 233 233 234 234 235 236 235 234 234 236 237 238 239 239 238
296 295 294 293 292 290 288 286 284 283 281 279 277 275 273 271 269 267 264 261 259 256 254 253 251 250 249 248 246 244 242 241 240 239 238 237 236 235 234 234 235 235 235 235 234 233 233 233 232 232 233 233 233 234 234 233 233 232 231 230 229 229 230 232 233 233 232 231 231 232 233 234 234 234 234 234 234 235 235 235 234 234 235 236 237 238 238 238
297 296 295 294 292 291 289 287 285 284 283 281 278 276 274 272 271 269 266 264 261 259 256 254 252 251 249 248 247 245 243 241 240 239 238 237 236 235 234 233 234 234 234 234 234 233 233 233 232 232 232 233 232 233 233 233 233 233 231 229 228 229 230 232 233 233 233 232 231 231 232 234 234 234 234 235 235 235 235 235 234 234 234 235 236 238 238 238
297 297 295 294 293 291 290 288 287 286 285 283 280 278 276 274 272 271 268 266 263 261 258 256 253 251 250 248 247 246 244 242 240 239 238 237 236 235 234 233 233 233 233 233 233 233 233 232 232 232 231 232 232 232 232 232 232 232 232 230 228 229 230 232 233 234 233 232 231 231 231 233 234 234 234 234 235 236 235 234 234 234 234 235 235 237 238 239
298 297 295 294 293 292 291 290 289 288 287 286 284 282 279 277 274 272 270 267 264 262 260 258 255 253 251 249 247 246 244 243 240 239 238 236 235 235 234 233 232 232 232 232 232 232 232 232 232 232 232 231 232 231 231 231 231 231 231 230 228 228 229 231 233 234 234 232 231 231 230 231 233 234 234 234 235 236 235 234 234 234 234 235 235 236 238 239
298 297 295 294 294 293 293 292 291 291 290 289 288 286 283 280 276 273 270 267 265 262 260 258 257 254 252 250 248 246 244 243 240 239 238 236 235 235 234 233 233 232 232 231 232 232 232 232 232 232 232 232 231 231 231 230 230 230 231 230 228 228 229 230 232 233 233 233 231 231 230 230 231 233 234 234 235 236 236 235 234 234 235 235 235 235 237 238
298 297 296 295 295 295 295 294 294 293 293 292 291 289 287 283 279 274 270 267 265 262 260 258 257 255 253 251 249 246 244 243 241 239 238 237 236 235 234 233 233 232 231 231 231 231 231 231 231 232 232 232 231 231 230 230 229 229 230 230 229 228 229 229 231 232 232 232 232 231 230 230 230 231 233 234 235 236 236 235 235 235 235 235 235 235 236 237
298 297 296 296 297 297 297 297 297 296 296 295 295 294 291 287 281 275 270 267 264 261 259 257 256 255 253 252 250 248 245 243 241 240 238 238 236 235 234 233 233 233 232 231 230 230 231 231 231 231 231 232 231 231 230 230 229 228 228 229 228 228 228 229 230 231 231 232 232 231 230 230 230 231 232 234 235 236 236 236 236 235 235 236 236 235 236 237
298 298 298 298 299 299 300 300 300 299 299 299 299 298 295 291 284 277 271 266 263 260 258 256 255 254 254 253 251 250 247 244 241 240 238 238 237 236 235 234 233 233 232 231 230 230 230 230 230 231 231 231 231 231 230 230 229 228 227 228 228 228 228 229 229 230 231 231 231 231 230 230 231 230 232 234 235 235 235 236 236 236 235 236 236 236 236 237
299 300 300 301 302 303 304 304 303 302 302 303 303 302 299 295 289 281 274 267 263 260 258 256 255 254 254 254 253 252 250 246 243 239 238 237 237 237 236 234 233 233 232 232 231 230 229 229 229 230 230 231 231 231 231 230 229 227 227 227 228 227 228 229 229 229 231 231 230 230 230 230 231 230 231 233 234 235 235 235 236 237 237 237 237 236 237 237
301 302 303 304 305 307 307 306 305 305 305 307 308 307 305 300 294 286 278 271 265 261 259 257 256 256 255 255 255 254 252 249 246 241 238 236 235 236 236 235 234 233 232 232 231 230 229 229 229 229 229 230 231 231 231 230 229 228 227 227 227 227 227 228 229 229 230 231 230 230 230 230 230 230 231 233 234 235 236 236 236 237 237 238 238 237 237 237
303 304 305 307 308 309 309 308 307 308 309 311 313 313 312 307 299 291 282 275 269 265 262 260 259 259 258 257 256 255 254 252 249 245 241 237 234 233 235 235 234 233 232 232 231 230 230 229 228 228 229 229 230 231 231 230 230 228 227 227 227 227 227 228 229 229 230 231 231 230 229 229 230 230 231 233 234 235 236 236 236 236 237 238 238 239 238 238
305 306 308 310 311 311 310 310 310 311 313 315 318 320 319 314 306 296 287 280 275 270 267 264 263 262 261 260 258 257 256 254 251 248 244 240 235 232 231 232 233 233 232 231 231 230 230 229 228 228 228 228 229 230 230 230 230 229 227 227 226 227 227 227 228 229 230 231 231 231 229 229 230 231 231 233 233 234 236 237 237 236 236 237 238 239 239 239
308 309 311 313 314 313 312 312 312 314 316 320 324 327 326 321 312 302 292 285 280 277 274 270 267 264 262 261 260 258 256 254 252 249 245 242 237 233 230 230 231 232 232 231 231 230 230 229 229 228 228 228 228 229 229 229 229 229 228 227 226 226 227 227 228 228 230 231 231 232 231 229 231 232 233 234 234 234 236 237 238 238 237 237 238 239 240 240
310 312 314 315 315 314 313 314 315 317 320 325 329 332 332 327 318 308 298 289 284 280 277 273 268 263 260 259 258 256 254 252 251 249 246 243 238 234 231 229 228 229 230 231 231 230 230 229 229 228 228 227 227 228 228 228 228 228 228 227 227 227 227 228 228 228 229 230 231 232 231 231 231 233 234 234 234 234 235 237 239 239 239 238 237 238 239 240
312 315 317 317 316 315 315 316 317 320 324 329 334 338 338 333 325 315 304 294 285 278 274 269 264 258 254 253 252 251 251 250 249 247 245 243 239 235 232 230 228 227 228 229 230 230 230 229 229 228 228 227 227 227 228 228 228 228 228 228 227 227 227 228 228 228 228 229 231 231 231 231 231 232 234 234 234 235 235 236 238 239 240 239 238 238 238 239
316 319 318 317 316 316 316 318 320 323 326 332 338 343 343 337 330 322 311 300 289 279 272 266 260 255 250 248 247 247 247 247 246 245 244 242 239 235 233 231 229 227 226 226 228 229 229 229 229 229 228 227 227 227 227 228 228 228 228 228 227 227 227 227 228 229 229 229 230 230 230 231 231 232 234 235 234 234 235 235 236 238 239 240 239 238 237 238
319 321 319 318 318 317 318 320 323 325 329 334 340 346 347 342 338 332 323 312 301 288 277 268 261 255 249 244 243 243 243 244 244 243 242 241 238 235 233 231 229 228 226 225 225 227 228 228 228 228 228 228 227 227 227 227 227 227 227 228 227 227 227 227 228 229 229 229 229 230 230 231 231 231 233 235 235 234 234 234 235 236 238 239 239 238 237 237
321 321 319 319 319 318 319 322 325 328 332 337 342 348 351 350 347 342 335 328 319 305 289 276 266 256 249 243 240 240 240 241 241 241 241 239 237 235 233 231 229 228 226 225 223 224 226 227 227 228 228 228 227 227 226 226 226 227 227 227 227 227 227 227 228 229 229 230 230 230 230 231 231 231 232 234 235 235 234 233 234 234 235 237 238 238 238 237
322 322 321 321 319 318 320 324 327 330 335 339 344 351 355 356 353 349 346 342 336 324 307 288 273 260 250 243 240 239 238 238 239 239 238 237 236 234 232 230 229 228 226 225 223 222 223 225 226 227 227 228 227 227 226 226 226 226 226 226 226 226 226 227 228 228 228 229 230 230 230 231 231 231 232 233 234 235 235 234 233 233 233 234 236 237 237 237
324 324 323 321 319 319 322 326 330 334 337 340 346 352 357 360 358 357 357 355 351 344 330 310 288 268 255 246 241 239 238 237 236 236 236 235 234 233 231 230 229 228 227 225 224 222 222 223 225 226 227 227 227 227 226 226 225 225 226 226 226 226 226 226 227 228 228 228 229 230 230 231 231 231 231 232 234 235 235 234 234 233 233 233 234 235 236 237
326 325 323 321 318 319 323 328 333 336 338 342 347 351 359 3 1 3 6 4 1 356 347 332 311 285 265 253 245 241 239 237 236 235 234 234 233 232 231 229 228 227 227 226 224 223 221 221 222 224 225 226 227 227 226 226 225 225 225 226 226 226 225 226 226 227 228 228 228 229 230 231 231 231 231 232 233 235 235 235 234 233 233 233 233 234 235 236
327 325 323 320 319 320 325 332 336 338 340 344 346 350 359 4 4 8 10 9 9 6 358 347 332 312 285 265 254 248 243 239 237 235 234 233 232 231 230 229 227 227 226 226 224 223 222 221 220 221 223 225 226 226 226 226 226 225 225 225 226 226 225 226 226 226 227 227 227 228 229 230 231 232 232 232 233 235 236 235 235 234 233 233 233 234 234 235
327 325 322 319 320 323 329 334 337 340 343 345 346 350 357 2 6 12 12 12 13 9 3 355 345 332 310 283 263 254 249 244 240 236 234 233 232 231 230 229 227 226 226 226 225 223 222 221 220 220 221 223 224 225 226 226 226 225 225 225 225 226 225 225 226 226 226 227 227 227 228 229 231 232 233 232 233 234 236 236 235 235 234 233 233 234 234 235
326 324 321 320 322 325 332 336 338 343 344 346 347 350 356 359 6 15 16 15 13 8 5 1 354 345 329 304 276 257 253 250 245 240 237 234 232 230 229 229 227 226 225 225 225 224 223 222 221 220 220 222 223 225 226 226 226 226 225 225 225 226 226 225 226 226 226 226 226 226 227 228 229 231 232 233 233 233 235 236 236 235 235 235 234 234 235 235
325 323 321 322 324 329 335 337 341 344 345 348 348 351 355 356 4 17 18 15 12 9 9 7 1 354 342 323 296 268 254 250 248 246 241 237 234 231 230 228 227 227 225 225 225 224 223 223 222 221 220 221 222 224 226 226 226 226 226 226 226 226 226 226 226 226 226 226 226 226 227 227 228 230 231 232 233 233 234 236 237 236 236 235 235 235 235 235
325 323 323 325 328 334 337 339 343 344 346 349 349 353 355 353 4 16 15 13 12 11 13 12 8 3 353 340 319 290 267 254 247 247 245 241 237 233 231 230 228 227 226 225 225 224 224 223 223 222 221 220 221 223 225 226 226 226 226 226 226 226 226 226 226 226 227 226 226 226 226 226 227 229 231 232 232 233 234 235 237 237 237 236 236 236 236 236
327 326 326 328 332 338 339 341 344 345 349 350 350 356 355 353 6 11 8 11 13 14 16 16 17 14 5 355 338 315 292 270 253 246 244 244 241 237 235 232 231 229 228 226 225 225 224 224 223 223 222 221 221 222 224 226 227 227 226 226 226 226 226 226 227 227 227 227 227 226 226 226 226 228 230 232 233 233 234 235 236 237 238 238 237 237 237 237
331 330 330 332 336 340 341 345 346 347 351 350 353 358 353 357 8 6 2 9 14 17 19 19 20 20 16 9 355 339 321 297 275 258 246 243 242 241 238 236 234 232 230 228 227 226 226 225 224 224 223 222 221 222 223 225 226 227 227 226 226 226 226 226 227 227 227 227 227 227 227 226 226 227 229 231 233 233 234 235 236 237 238 238 238 238 238 238
334 333 333 334 339 342 344 347 348 350 352 351 356 357 352 1 9 2 0 6 11 17 21 21 22 22 21 19 10 360 346 326 304 280 260 248 242 241 240 238 237 235 232 230 229 228 227 227 226 225 224 223 222 222 222 224 225 227 227 227 227 227 227 227 227 227 227 227 228 228 228 226 226 227 228 230 232 233 234 235 236 237 238 238 239 239 239 239
337 336 336 338 342 343 346 348 349 353 352 353 359 355 353 5 7 1 3 5 7 14 19 22 24 24 24 25 22 17 7 354 336 309 286 266 252 245 240 238 238 237 235 233 231 230 229 228 227 226 225 224 223 223 223 223 225 226 227 227 227 228 227 227 227 227 228 228 228 228 229 228 227 227 228 229 232 233 234 235 235 236 237 238 239 239 240 240
341 341 340 341 343 345 347 347 350 353 352 356 359 354 358 6 3 2 6 6 7 10 14 19 24 25 27 28 28 27 24 17 3 344 323 295 273 259 249 242 238 237 236 235 234 232 231 230 229 228 227 225 225 224 223 224 225 226 227 227 228 228 228 228 228 228 228 229 229 229 229 229 229 228 228 229 231 232 234 235 235 236 237 238 238 239 240 240
344 343 342 342 343 346 347 347 351 352 353 359 359 355 1 4 0 3 6 7 9 9 11 14 19 24 27 29 29 30 30 29 22 12 356 333 307 281 265 255 246 240 237 235 235 235 234 233 232 231 229 227 226 225 225 225 225 226 227 228 228 228 228 228 229 229 229 229 229 230 230 230 230 230 229 229 230 231 233 235 236 237 237 238 238 239 240 240
346 345 345 345 345 346 346 348 351 351 355 2 358 356 3 3 2 5 5 7 10 11 12 12 15 20 24 28 31 31 31 31 30 28 18 6 349 312 284 268 258 251 244 239 236 235 234 234 234 233 232 230 229 227 226 226 226 226 227 228 229 229 229 229 229 229 230 230 230 230 231 231 232 232 231 230 230 231 232 234 236 237 237 238 239 239 240 240
350 348 347 347 347 347 347 350 351 352 359 1 355 359 4 3 4 6 5 7 9 11 13 13 14 17 18 23 28 31 33 33 33 32 30 27 17 355 328 290 268 257 251 245 241 238 235 234 234 234 234 232 231 230 229 228 227 227 227 228 229 230 230 230 230 230 230 230 230 231 231 232 233 233 233 232 231 231 232 233 235 237 237 238 239 240 240 240
353 352 350 349 348 348 349 351 351 355 359 355 354 1 4 3 5 6 6 8 9 11 13 14 16 17 17 19 22 26 30 33 34 34 33 33 29 23 11 340 302 274 259 250 245 242 239 237 235 234 234 233 233 231 230 230 229 229 229 229 230 230 231 231 231 231 231 231 231 231 232 232 233 234 234 233 232 232 232 233 234 236 237 238 239 240 241 241
357 355 353 352 350 349 350 350 352 355 354 352 356 1 1 3 5 5 7 8 9 11 12 14 16 17 18 20 20 22 25 27 31 33 34 34 33 32 29 20 360 322 289 270 256 248 243 241 239 237 235 233 233 233 232 231 231 231 230 230 231 231 232 232 233 233 233 232 232 232 232 233 234 234 235 235 234 233 233 233 234 235 237 238 239 240 241 242
359 358 357 354 352 351 351 351 352 352 351 353 357 358 359 2 4 5 7 8 10 11 13 14 16 17 19 21 22 23 23 24 25 29 32 34 35 35 33 32 27 15 351 314 284 266 255 248 245 243 240 238 235 234 233 233 232 232 232 232 232 232 233 233 233 234 234 234 234 233 234 234 235 235 236 236 236 235 234 234 235 235 236 238 238 239 241 242
360 360 359 357 355 355 354 354 354 352 353 355 355 355 358 1 2 4 6 7 10 12 13 14 15 17 19 21 24 25 25 25 24 25 26 29 31 33 35 36 35 31 24 9 335 297 275 263 255 250 247 245 242 240 238 236 235 234 234 234 234 234 234 234 234 235 235 235 235 235 235 236 237 237 237 238 238 237 236 236 236 236 237 238 238 239 240 241
1 1 360 360 359 358 357 357 356 356 356 356 355 355 357 359 1 4 5 7 9 10 12 14 15 17 19 20 23 25 27 27 27 26 26 26 25 26 29 33 36 36 33 27 17 357 317 285 269 260 254 250 247 245 243 241 240 238 237 237 236 236 236 236 236 236 236 236 236 236 236 238 239 239 239 239 239 239 239 238 237 237 237 238 239 239 239 240
4 4 3 2 2 1 360 359 358 358 358 358 357 358 358 358 360 1 3 6 7 8 11 12 14 16 18 20 22 24 27 29 30 30 30 29 27 25 25 26 28 32 35 35 31 22 8 342 303 278 266 258 252 248 245 243 242 241 241 240 239 238 238 238 238 238 237 237 237 237 237 238 241 241 241 241 241 241 241 240 240 239 239 239 239 240 240 240
7 7 8 7 6 5 3 1 359 359 359 359 360 360 359 360 360 360 1 3 5 7 9 10 11 14 17 19 21 22 24 27 30 31 31 31 30 30 28 25 23 23 26 30 34 33 27 15 357 326 293 275 264 256 251 247 244 243 242 242 241 240 240 239 239 239 239 239 238 238 237 239 241 242 242 242 242 242 242 242 242 241 240 240 240 241 242 241
11 11 11 12 11 11 9 6 3 1 1 2 2 1 1 0 360 360 1 2 3 4 5 7 10 12 15 17 19 21 23 24 26 29 30 30 31 31 31 29 26 24 22 21 22 24 26 23 15 1 337 310 286 271 263 256 251 248 246 244 244 243 243 242 241 241 240 240 239 239 237 238 241 243 243 243 243 243 243 242 242 242 242 242 241 242 242 243
17 16 15 15 15 15 13 11 8 5 4 5 5 4 3 1 0 0 1 1 1 1 3 5 8 11 13 15 17 19 21 22 23 25 26 28 29 30 29 28 29 28 26 24 21 18 17 15 12 5 354 341 319 295 279 269 263 258 254 251 249 247 246 246 245 244 243 243 242 241 240 239 241 243 244 244 244 244 244 243 243 243 243 243 243 243 243 243
20 20 19 18 18 18 16 15 13 10 9 8 8 8 6 5 3 2 1 0 360 0 2 4 5 7 10 12 14 16 18 19 20 21 23 24 24 25 24 23 22 23 24 25 24 21 18 14 9 3 355 347 338 323 302 287 276 269 264 260 257 254 252 250 248 247 246 245 245 245 243 242 242 244 245 244 244 244 244 244 244 244 243 243 243 243 243 244
21 20 20 20 21 22 21 19 18 16 14 12 12 11 10 9 7 5 3 1 1 2 3 4 4 5 6 8 10 13 15 16 16 18 19 20 22 22 21 19 18 16 16 16 16 17 18 17 15 10 1 352 344 335 323 311 297 285 275 269 265 262 260 256 254 252 250 248 248 247 246 244 243 245 246 246 245 245 245 245 245 245 244 244 243 243 243 243
20 20 20 20 22 23 24 24 23 22 20 18 17 15 14 13 11 9 8 6 5 5 5 6 7 6 5 5 7 9 11 12 12 14 14 16 18 19 18 17 14 12 10 9 8 7 6 9 13 15 12 3 353 343 333 325 316 306 295 283 275 269 266 263 260 257 255 253 252 250 249 247 245 244 245 247 247 247 247 247 246 246 246 245 245 244 244 244
19 19 19 19 21 22 24 25 26 25 24 23 21 19 18 16 15 14 13 12 10 9 9 10 11 11 10 8 7 8 9 10 10 10 10 11 13 14 15 14 12 9 7 5 3 1 359 358 360 3 7 7 2 353 342 331 323 317 309 301 292 283 276 271 266 263 261 259 257 255 254 252 249 246 245 247 248 248 248 249 249 248 248 247 246 246 245 245
16 16 16 17 18 19 21 23 25 26 26 25 24 23 22 21 19 18 16 14 13 12 11 12 14 16 16 14 12 10 9 10 10 9 8 8 8 9 10 10 8 6 4 2 360 358 356 354 353 353 353 355 356 354 347 338 329 320 313 306 301 295 289 283 276 270 267 264 261 259 258 256 254 250 248 248 248 249 248 249 249 249 250 250 249 249 248 247
14 14 14 14 13 14 16 18 21 23 24 25 25 25 24 23 22 20 18 15 13 12 11 11 12 16 20 19 17 14 11 10 10 9 7 5 4 4 5 5 4 3 1 359 357 355 354 352 350 349 348 347 346 347 346 341 335 327 318 309 301 295 291 287 283 279 274 269 266 263 260 259 258 256 253 251 250 250 250 249 249 249 250 250 250 250 251 250
Height
10569 10566 10563 10560 10557 10553 10550 10548 10545 10543 10541 10540 10539 10538 10537 10536 10535 10534 10534 10534 10534 10535 10536 10538 10539 10541 10545 10549 10554 10556 10558 10564 10573 10581 10586 10592 10599 10607 10614 10619 10625 10632 10638 10643 10647 10653 10660 10666 10670 10674 10679 10685 10691 10699 10705 10711 10716 10724 10734 10744 10753 10757 10757 10757 10757 10762 10768 10774 10781 10782 10784 10789 10793 10796 10800 10803 10805 10807 10811 10815 10818 10820 10822 10822 10823 10825 10828 10831
10562 10559 10555 10552 10548 10545 10542 10539 10537 10535 10533 10531 10530 10529 10527 10526 10526 10525 10525 10524 10525 10526 10526 10528 10529 10530 10533 10538 10541 10544 10547 10553 10561 10568 10574 10580 10588 10595 10602 10608 10614 10620 10625 10631 10637 10642 10648 10656 10660 10663 10669 10675 10681 10688 10695 10702 10709 10717 10727 10737 10747 10750 10748 10744 10745 10753 10760 10768 10774 10776 10779 10784 10788 10791 10795 10798 10801 10804 10806 10810 10814 10817 10818 10818 10819 10820 10823 10826
10555 10551 10547 10544 10541 10537 10534 10531 10529 10527 10525 10523 10522 10520 10519 10517 10517 10516 10516 10515 10516 10516 10517 10518 10519 10520 10522 10526 10529 10532 10536 10543 10550 10556 10562 10568 10576 10583 10590 10596 10601 10607 10613 10619 10626 10631 10637 10645 10650 10653 10658 10664 10670 10676 10684 10694 10700 10707 10717 10730 10739 10739 10736 10734 10736 10744 10752 10761 10768 10772 10774 10779 10783 10786 10790 10793 10796 10798 10800 10805 10810 10813 10814 10814 10815 10816 10818 10821
10548 10544 10540 10537 10533 10530 10527 10524 10522 10519 10517 10515 10514 10512 10511 10510 10508 10508 10507 10507 10507 10507 10508 10509 10509 10511 10512 10515 10518 10521 10526 10533 10539 10545 10551 10556 10563 10571 10578 10583 10589 10595 10601 10608 10615 10621 10627 10634 10639 10642 10648 10653 10660 10666 10675 10684 10689 10696 10708 10722 10728 10725 10727 10727 10727 10734 10743 10754 10763 10768 10771 10774 10778 10781 10784 10787 10791 10792 10794 10800 10805 10807 10808 10809 10810 10811 10813 10816
10541 10537 10533 10529 10526 10523 10520 10517 10514 10512 10510 10507 10506 10505 10504 10502 10501 10500 10499 10498 10498 10498 10499 10499 10500 10501 10503 10505 10507 10510 10516 10521 10528 10535 10540 10545 10551 10559 10565 10571 10577 10583 10589 10596 10603 10610 10616 10623 10627 10632 10638 10642 10649 10657 10665 10673 10679 10687 10701 10712 10716 10717 10721 10719 10717 10725 10737 10748 10756 10763 10766 10768 10773 10776 10779 10782 10783 10784 10789 10795 10798 10800 10802 10804 10806 10807 10809 10811
10534 10530 10526 10522 10519 10516 10513 10510 10507 10505 10502 10500 10499 10498 10497 10495 10494 10493 10491 10490 10489 10489 10489 10490 10491 10492 10493 10495 10497 10501 10505 10511 10520 10526 10529 10534 10540 10546 10552 10558 10565 10570 10577 10584 10591 10599 10605 10611 10616 10621 10628 10633 10639 10647 10655 10663 10670 10680 10691 10701 10707 10711 10715 10711 10710 10718 10730 10741 10748 10755 10760 10763 10767 10770 10773 10775 10775 10776 10784 10789 10791 10794 10796 10799 10802 10804 10805 10807
10528 10524 10520 10516 10512 10509 10506 10504 10501 10498 10496 10493 10492 10491 10490 10488 10487 10485 10483 10482 10480 10480 10480 10480 10482 10482 10484 10486 10488 10492 10495 10502 10512 10514 10515 10522 10529 10533 10539 10545 10552 10558 10564 10573 10580 10587 10594 10600 10605 10610 10617 10623 10629 10638 10646 10653 10662 10671 10679 10690 10698 10703 10706 10703 10703 10711 10722 10733 10740 10746 10753 10757 10759 10762 10766 10768 10767 10770 10778 10783 10785 10788 10790 10793 10797 10800 10801 10802
10521 10517 10513 10509 10506 10503 10500 10498 10495 10492 10489 10487 10485 10483 10482 10481 10479 10478 10475 10473 10472 10471 10471 10471 10473 10473 10474 10476 10479 10482 10487 10493 10500 10502 10504 10511 10517 10522 10528 10534 10541 10547 10553 10562 10569 10576 10583 10589 10595 10600 10606 10613 10621 10628 10636 10643 10652 10662 10669 10680 10689 10694 10697 10696 10696 10704 10714 10724 10731 10738 10745 10749 10751 10755 10760 10761 10761 10764 10771 10776 10780 10783 10784 10787 10792 10796 10797 10797
10514 10511 10507 10503 10500 10497 10495 10492 10489 10486 10483 10480 10478 10476 10474 10473 10471 10469 10467 10464 10463 10462 10462 10463 10463 10464 10465 10467 10470 10473 10478 10484 10488 10492 10496 10501 10506 10512 10518 10524 10530 10536 10543 10551 10558 10565 10572 10578 10585 10591 10596 10604 10611 10618 10625 10632 10641 10653 10661 10670 10680 10685 10687 10688 10690 10697 10705 10713 10721 10729 10736 10739 10743 10750 10754 10755 10755 10759 10765 10769 10773 10777 10779 10781 10786 10790 10791 10792
10508 10505 10501 10498 10495 10492 10490 10487 10484 10480 10477 10473 10471 10469 10467 10465 10463 10461 10458 10456 10454 10453 10453 10454 10454 10454 10455 10458 10460 10463 10470 10475 10479 10484 10488 10491 10497 10502 10507 10514 10520 10525 10532 10539 10547 10554 10561 10568 10575 10581 10587 10593 10600 10607 10615 10621 10632 10645 10653 10661 10669 10675 10678 10680 10683 10687 10694 10703 10710 10720 10726 10730 10737 10745 10749 10748 10749 10753 10758 10762 10766 10771 10773 10776 10780 10783 10786 10787
10502 10499 10496 10493 10490 10488 10485 10482 10478 10474 10470 10467 10464 10462 10460 10457 10455 10453 10450 10447 10445 10444 10444 10444 10444 10444 10446 10448 10451 10454 10461 10466 10471 10476 10479 10482 10487 10492 10498 10505 10511 10516 10521 10528 10536 10542 10549 10557 10564 10571 10576 10581 10589 10597 10604 10611 10623 10635 10644 10651 10657 10665 10668 10670 10674 10677 10684 10692 10700 10710 10716 10722 10731 10741 10743 10741 10742 10746 10751 10756 10760 10764 10768 10771 10773 10777 10780 10782
10497 10494 10491 10488 10486 10484 10481 10477 10472 10468 10464 10461 10458 10456 10453 10450 10447 10444 10441 10438 10436 10435 10435 10435 10435 10436 10437 10440 10442 10446 10452 10457 10462 10467 10469 10473 10478 10484 10490 10496 10501 10507 10512 10518 10524 10531 10538 10544 10552 10559 10564 10572 10581 10587 10594 10602 10613 10625 10635 10641 10647 10654 10658 10660 10664 10669 10675 10682 10691 10700 10707 10716 10726 10734 10735 10732 10734 10739 10745 10751 10754 10757 10762 10765 10768 10771 10773 10776
10493 10489 10487 10484 10482 10479 10476 10471 10467 10462 10458 10455 10452 10450 10447 10443 10439 10435 10432 10429 10428 10427 10426 10426 10427 10428 10429 10431 10434 10438 10442 10447 10452 10457 10460 10465 10471 10476 10482 10487 10492 10497 10502 10507 10513 10519 10526 10533 10541 10547 10554 10564 10571 10575 10584 10595 10606 10617 10625 10631 10637 10643 10648 10652 10655 10661 10666 10672 10681 10689 10699 10711 10718 10725 10726 10725 10729 10734 10739 10745 10748 10752 10755 10758 10762 10764 10767 10770
10489 10486 10483 10481 10478 10475 10471 10466 10461 10457 10453 10450 10447 10444 10440 10435 10431 10427 10423 10421 10419 10418 10419 10419 10419 10420 10422 10423 10426 10429 10433 10438 10442 10447 10451 10456 10463 10469 10473 10477 10482 10487 10492 10497 10502 10508 10515 10522 10530 10537 10544 10554 10560 10564 10576 10587 10596 10606 10615 10621 10627 10631 10638 10644 10647 10653 10658 10663 10671 10679 10693 10705 10709 10715 10718 10718 10723 10729 10733 10737 10741 10745 10748 10751 10754 10758 10760 10763
10486 10483 10480 10478 10475 10471 10466 10461 10457 10452 10448 10445 10442 10438 10433 10428 10423 10419 10415 10413 10411 10411 10411 10412 10412 10413 10414 10414 10417 10421 10424 10428 10432 10437 10442 10447 10455 10462 10465 10468 10472 10476 10482 10486 10491 10497 10504 10511 10519 10527 10534 10543 10550 10556 10566 10577 10585 10595 10603 10610 10616 10622 10629 10634 10638 10645 10649 10654 10662 10671 10687 10699 10700 10705 10710 10712 10718 10723 10726 10730 10733 10737 10741 10745 10748 10751 10754 10757
10483 10480 10477 10474 10471 10467 10462 10457 10452 10448 10444 10440 10437 10433 10427 10421 10415 10411 10408 10406 10404 10403 10403 10403 10404 10404 10404 10405 10408 10412 10415 10418 10422 10427 10432 10438 10446 10453 10456 10459 10463 10466 10471 10476 10481 10487 10495 10503 10510 10517 10525 10534 10540 10546 10555 10566 10575 10584 10592 10600 10607 10613 10619 10624 10629 10637 10642 10647 10655 10664 10680 10691 10693 10696 10702 10708 10712 10717 10721 10723 10726 10730 10734 10738 10741 10745 10747 10750
10480 10477 10474 10471 10467 10463 10458 10454 10449 10444 10440 10436 10432 10427 10421 10414 10408 10404 10401 10398 10396 10394 10393 10393 10394 10394 10393 10396 10399 10402 10406 10409 10413 10418 10423 10429 10437 10443 10447 10450 10454 10457 10462 10467 10472 10479 10488 10494 10500 10508 10516 10523 10530 10536 10545 10555 10564 10573 10582 10590 10598 10605 10611 10615 10621 10629 10635 10641 10649 10659 10672 10682 10686 10689 10694 10701 10705 10710 10716 10717 10719 10722 10726 10731 10735 10738 10739 10741
10477 10474 10471 10467 10463 10459 10455 10451 10446 10440 10435 10432 10428 10422 10415 10408 10402 10397 10393 10390 10388 10385 10384 10383 10383 10384 10385 10387 10390 10392 10396 10400 10404 10409 10414 10420 10427 10434 10438 10441 10445 10449 10454 10459 10465 10473 10480 10486 10491 10498 10505 10511 10519 10527 10534 10544 10555 10564 10572 10581 10590 10597 10603 10608 10614 10621 10628 10634 10642 10652 10662 10670 10677 10681 10684 10690 10696 10703 10708 10710 10712 10714 10717 10721 10725 10728 10729 10731
10474 10471 10468 10464 10460 10456 10452 10448 10443 10438 10432 10427 10423 10418 10411 10404 10397 10391 10387 10383 10379 10377 10375 10374 10374 10375 10378 10380 10382 10384 10388 10392 10396 10400 10405 10411 10417 10423 10428 10432 10436 10440 10446 10453 10459 10465 10471 10477 10482 10488 10495 10502 10510 10519 10526 10537 10548 10556 10564 10572 10581 10589 10595 10601 10606 10612 10619 10627 10634 10643 10652 10661 10668 10673 10676 10679 10686 10694 10699 10701 10704 10705 10707 10710 10714 10717 10719 10721
10472 10469 10465 10461 10457 10453 10449 10446 10441 10436 10431 10424 10419 10415 10408 10400 10392 10386 10381 10376 10373 10370 10368 10367 10367 10368 10371 10373 10375 10377 10381 10385 10389 10393 10397 10402 10408 10414 10418 10423 10427 10432 10438 10446 10452 10457 10461 10467 10472 10479 10486 10494 10502 10511 10520 10530 10540 10548 10556 10564 10573 10581 10587 10593 10598 10602 10610 10619 10626 10634 10644 10653 10660 10666 10669 10670 10676 10684 10688 10691 10694 10697 10699 10700 10703 10707 10710 10712
10469 10466 10462 10458 10454 10450 10446 10443 10439 10434 10429 10423 10417 10411 10404 10395 10388 10382 10377 10372 10368 10365 10363 10361 10361 10363 10365 10366 10368 10371 10374 10378 10382 10386 10390 10395 10400 10405 10409 10414 10418 10423 10429 10437 10443 10447 10452 10457 10464 10471 10479 10486 10495 10503 10511 10521 10529 10537 10546 10554 10563 10572 10578 10584 10588 10593 10602 10611 10619 10628 10638 10646 10652 10658 10662 10663 10666 10671 10675 10680 10683 10687 10690 10691 10693 10696 10700 10703
10467 10463 10459 10456 10452 10447 10444 10441 10437 10432 10426 10420 10415 10408 10401 10393 10386 10380 10373 10368 10364 10361 10359 10358 10357 10358 10360 10361 10363 10365 10368 10372 10375 10379 10383 10387 10392 10396 10400 10405 10410 10414 10420 10427 10433 10438 10444 10450 10457 10464 10471 10479 10486 10494 10502 10511 10519 10526 10535 10543 10552 10560 10568 10574 10578 10585 10595 10605 10613 10621 10631 10638 10643 10650 10654 10655 10656 10658 10663 10669 10673 10677 10679 10681 10683 10685 10689 10693
10464 10461 10457 10453 10449 10445 10442 10439 10435 10430 10424 10419 10412 10407 10401 10393 10386 10379 10372 10366 10362 10359 10357 10355 10355 10355 10356 10357 10359 10361 10364 10367 10370 10374 10377 10380 10384 10388 10392 10397 10402 10407 10411 10417 10423 10430 10437 10444 10451 10458 10464 10471 10478 10486 10494 10502 10510 10517 10525 10533 10540 10549 10557 10563 10570 10578 10587 10598 10606 10614 10624 10630 10633 10639 10644 10645 10647 10647 10652 10658 10662 10666 10669 10670 10672 10674 10678 10681
10462 10459 10455 10451 10447 10443 10440 10438 10434 10429 10424 10417 10411 10406 10400 10393 10386 10378 10372 10366 10362 10358 10355 10354 10353 10353 10353 10355 10356 10358 10360 10363 10366 10369 10372 10375 10378 10382 10386 10390 10394 10399 10403 10409 10415 10422 10430 10438 10444 10450 10457 10464 10470 10478 10485 10493 10500 10507 10516 10523 10531 10539 10548 10555 10563 10571 10579 10590 10599 10607 10615 10619 10622 10628 10633 10636 10639 10639 10641 10646 10650 10654 10658 10660 10662 10663 10666 10669
10460 10457 10453 10449 10445 10442 10439 10436 10433 10428 10423 10416 10410 10405 10399 10394 10387 10378 10372 10367 10362 10357 10355 10353 10352 10351 10352 10353 10354 10356 10358 10360 10362 10364 10367 10370 10373 10376 10379 10383 10388 10392 10396 10401 10408 10415 10423 10429 10434 10441 10448 10456 10463 10470 10477 10483 10491 10498 10506 10513 10520 10529 10538 10547 10554 10563 10572 10581 10591 10599 10605 10610 10615 10619 10624 10629 10632 10631 10630 10633 10637 10641 10646 10649 10650 10652 10655 10658
10459 10455 10451 10447 10444 10441 10439 10436 10432 10428 10422 10416 10410 10403 10398 10393 10387 10379 10372 10365 10359 10357 10355 10353 10351 10350 10350 10351 10352 10354 10355 10357 10358 10361 10363 10365 10368 10371 10374 10378 10382 10386 10390 10395 10401 10409 10416 10421 10427 10434 10441 10449 10455 10461 10467 10474 10481 10488 10495 10503 10512 10520 10529 10538 10545 10554 10563 10571 10582 10591 10595 10602 10608 10610 10614 10620 10623 10621 10619 10621 10624 10629 10633 10637 10639 10641 10645 10650
10457 10453 10449 10446 10443 10441 10438 10435 10432 10427 10422 10416 10409 10403 10397 10392 10387 10379 10369 10362 10360 10359 10356 10353 10351 10350 10350 10350 10351 10351 10352 10354 10355 10357 10359 10361 10364 10367 10370 10373 10377 10381 10385 10389 10396 10403 10409 10415 10421 10428 10435 10442 10448 10454 10460 10466 10473 10480 10488 10497 10504 10512 10521 10530 10537 10545 10554 10563 10574 10580 10585 10594 10599 10600 10604 10608 10610 10610 10609 10609 10612 10617 10621 10625 10629 10633 10637 10643
10455 10452 10448 10445 10442 10441 10438 10435 10431 10426 10422 10416 10410 10404 10397 10392 10388 10377 10368 10367 10366 10362 10357 10354 10352 10350 10349 10349 10349 10350 10350 10351 10353 10355 10357 10359 10361 10364 10366 10369 10372 10376 10381 10385 10391 10398 10404 10409 10415 10422 10429 10436 10443 10449 10454 10459 10466 10474 10483 10491 10497 10505 10514 10522 10530 10537 10546 10556 10564 10569 10576 10585 10589 10591 10594 10596 10596 10598 10599 10599 10600 10605 10611 10616 10620 10625 10629 10635
10454 10451 10448 10445 10442 10440 10437 10434 10430 10426 10422 10416 10411 10405 10398 10393 10386 10375 10372 10373 10370 10365 10360 10356 10353 10351 10350 10349 10349 10349 10349 10349 10351 10353 10355 10357 10359 10362 10364 10367 10370 10373 10377 10382 10388 10393 10398 10402 10408 10415 10422 10429 10436 10442 10447 10453 10460 10468 10476 10483 10490 10499 10507 10515 10523 10530 10538 10547 10553 10559 10566 10574 10580 10583 10583 10584 10585 10587 10589 10591 10591 10596 10602 10607 10611 10615 10619 10626
10454 10451 10447 10444 10442 10440 10437 10433 10430 10426 10422 10417 10412 10405 10400 10395 10384 10377 10379 10379 10374 10369 10364 10359 10355 10353 10351 10350 10349 10349 10349 10349 10350 10351 10353 10355 10358 10360 10362 10365 10368 10371 10375 10380 10385 10389 10392 10396 10401 10408 10416 10424 10431 10437 10442 10448 10455 10461 10468 10476 10483 10490 10498 10506 10515 10522 10529 10537 10543 10548 10555 10564 10572 10575 10574 10572 10573 10577 10582 10584 10585 10589 10593 10597 10601 10606 10611 10618
10453 10450 10447 10444 10442 10440 10437 10433 10430 10426 10421 10417 10412 10406 10402 10395 10386 10384 10385 10382 10378 10372 10366 10361 10358 10354 10352 10351 10350 10349 10349 10349 10350 10351 10352 10354 10356 10358 10361 10363 10366 10369 10373 10377 10381 10384 10387 10392 10398 10404 10412 10420 10426 10432 10438 10443 10449 10455 10462 10470 10476 10482 10489 10498 10507 10513 10520 10526 10532 10537 10544 10555 10563 10565 10564 10560 10561 10569 10574 10576 10578 10581 10583 10586 10592 10597 10604 10611
10453 10450 10447 10444 10441 10439 10436 10433 10430 10425 10421 10417 10412 10407 10404 10397 10392 10392 10387 10382 10378 10374 10369 10365 10360 10357 10355 10353 10351 10350 10350 10350 10350 10351 10352 10353 10355 10357 10359 10362 10364 10367 10371 10375 10378 10381 10385 10389 10394 10400 10407 10414 10420 10427 10432 10437 10441 10448 10456 10463 10469 10475 10483 10491 10498 10504 10510 10515 10521 10526 10534 10546 10551 10551 10552 10551 10553 10560 10565 10568 10569 10570 10572 10577 10583 10590 10596 10603
10453 10450 10447 10444 10441 10438 10435 10433 10430 10426 10422 10418 10413 10410 10405 10399 10398 10396 10389 10383 10379 10375 10372 10369 10364 10362 10358 10355 10353 10352 10351 10350 10350 10351 10352 10354 10355 10356 10357 10360 10362 10365 10368 10372 10375 10379 10382 10386 10390 10396 10402 10408 10414 10420 10426 10430 10436 10442 10449 10455 10461 10468 10476 10483 10489 10495 10501 10505 10511 10518 10526 10535 10538 10538 10543 10545 10547 10551 10554 10557 10558 10558 10562 10569 10576 10582 10589 10595
10452 10449 10446 10443 10441 10438 10435 10432 10429 10426 10423 10418 10414 10411 10406 10402 10401 10397 10392 10387 10381 10377 10374 10371 10368 10366 10361 10358 10356 10354 10353 10352 10351 10352 10352 10354 10355 10356 10357 10358 10360 10363 10366 10370 10373 10376 10380 10383 10387 10391 10397 10402 10407 10413 10419 10424 10430 10436 10441 10447 10454 10461 10467 10473 10480 10487 10492 10497 10506 10513 10519 10523 10524 10527 10534 10538 10539 10542 10543 10544 10546 10549 10555 10562 10569 10576 10580 10585
10453 10450 10446 10443 10440 10437 10434 10431 10428 10426 10423 10419 10416 10413 10409 10406 10403 10398 10394 10390 10385 10380 10376 10373 10371 10368 10364 10362 10359 10357 10355 10354 10353 10353 10353 10354 10354 10355 10357 10358 10360 10362 10364 10367 10370 10374 10377 10380 10384 10388 10392 10397 10402 10408 10414 10419 10425 10430 10435 10441 10446 10452 10459 10465 10472 10479 10484 10492 10500 10504 10507 10509 10512 10518 10524 10528 10530 10533 10531 10531 10536 10542 10549 10556 10561 10567 10571 10575
10453 10449 10446 10443 10440 10437 10434 10431 10428 10426 10423 10420 10418 10415 10411 10408 10404 10399 10395 10392 10388 10385 10380 10377 10373 10369 10368 10366 10363 10360 10358 10357 10356 10355 10354 10354 10354 10355 10356 10357 10359 10361 10363 10365 10367 10371 10374 10377 10381 10384 10388 10393 10398 10404 10410 10414 10420 10424 10429 10434 10439 10446 10453 10458 10465 10471 10477 10484 10489 10492 10496 10501 10505 10508 10511 10517 10521 10521 10520 10522 10529 10536 10543 10549 10553 10557 10561 10565
10453 10449 10446 10443 10440 10437 10434 10431 10428 10425 10422 10420 10419 10415 10412 10409 10405 10401 10397 10393 10390 10387 10383 10380 10376 10373 10371 10368 10366 10364 10362 10360 10358 10357 10356 10355 10355 10355 10356 10357 10358 10360 10362 10364 10366 10368 10371 10374 10377 10380 10384 10389 10395 10400 10405 10409 10414 10418 10423 10428 10433 10439 10445 10450 10456 10462 10468 10473 10478 10484 10490 10494 10497 10496 10497 10504 10507 10507 10510 10517 10523 10528 10536 10542 10544 10547 10551 10554
10453 10449 10446 10443 10440 10437 10434 10432 10429 10425 10423 10422 10419 10416 10413 10410 10406 10403 10400 10396 10392 10388 10386 10383 10380 10377 10374 10370 10368 10367 10364 10363 10361 10360 10358 10357 10357 10357 10357 10358 10358 10359 10360 10362 10365 10367 10369 10371 10373 10376 10380 10385 10390 10394 10398 10403 10407 10412 10417 10421 10426 10431 10437 10442 10448 10453 10460 10465 10471 10477 10481 10485 10485 10482 10483 10486 10490 10495 10504 10511 10517 10521 10527 10532 10535 10537 10540 10542
10453 10449 10446 10443 10440 10437 10435 10432 10429 10426 10425 10422 10419 10416 10414 10411 10408 10405 10402 10399 10395 10391 10388 10385 10382 10380 10377 10374 10372 10369 10367 10365 10364 10362 10361 10360 10359 10359 10359 10359 10359 10360 10361 10362 10364 10365 10367 10369 10371 10373 10376 10380 10384 10387 10392 10396 10401 10406 10410 10415 10420 10424 10430 10436 10441 10446 10452 10458 10464 10468 10473 10475 10472 10467 10466 10468 10475 10487 10498 10505 10510 10514 10517 10522 10526 10527 10529 10531
10453 10450 10447 10443 10440 10437 10435 10432 10430 10428 10426 10422 10419 10417 10415 10413 10410 10407 10404 10401 10398 10395 10391 10388 10385 10383 10381 10378 10375 10372 10370 10369 10367 10365 10364 10363 10362 10361 10361 10361 10361 10362 10362 10363 10364 10365 10367 10369 10370 10372 10374 10377 10381 10383 10387 10391 10395 10400 10404 10409 10413 10417 10423 10429 10433 10439 10444 10450 10456 10461 10467 10465 10455 10453 10455 10457 10467 10482 10492 10499 10503 10505 10508 10511 10514 10516 10518 10519
10453 10450 10447 10444 10441 10438 10435 10432 10430 10427 10425 10423 10421 10418 10416 10413 10411 10408 10406 10403 10401 10398 10395 10392 10389 10387 10384 10382 10380 10377 10375 10372 10370 10368 10367 10365 10365 10364 10364 10364 10364 10364 10364 10364 10365 10365 10367 10368 10369 10372 10373 10376 10380 10382 10386 10389 10392 10396 10399 10403 10407 10411 10416 10420 10425 10431 10436 10442 10447 10454 10462 10453 10440 10444 10449 10451 10464 10477 10486 10492 10494 10496 10498 10498 10499 10502 10506 10508
10454 10451 10448 10445 10441 10438 10435 10433 10430 10427 10425 10423 10421 10418 10416 10414 10412 10409 10407 10404 10402 10400 10397 10395 10392 10390 10387 10385 10383 10381 10379 10376 10374 10371 10369 10368 10367 10366 10366 10366 10366 10366 10366 10366 10366 10366 10367 10368 10369 10370 10372 10374 10377 10380 10383 10387 10390 10393 10395 10398 10401 10404 10408 10412 10418 10423 10427 10434 10438 10446 10456 10443 10428 10438 10445 10447 10461 10471 10476 10481 10483 10484 10487 10486 10486 10487 10492 10497
10454 10451 10449 10445 10442 10439 10436 10433 10430 10428 10425 10423 10420 10418 10416 10414 10412 10410 10408 10406 10403 10401 10399 10397 10395 10393 10390 10388 10386 10384 10382 10380 10377 10375 10373 10372 10371 10369 10368 10367 10368 10368 10369 10369 10368 10368 10368 10368 10369 10370 10370 10372 10374 10376 10378 10381 10384 10386 10388 10391 10394 10397 10401 10404 10410 10415 10419 10425 10430 10438 10447 10434 10420 10429 10437 10441 10455 10463 10464 10468 10469 10471 10475 10475 10475 10474 10477 10483
10454 10452 10449 10446 10443 10440 10437 10434 10431 10429 10426 10423 10420 10418 10415 10414 10412 10411 10409 10407 10405 10403 10401 10399 10397 10395 10393 10390 10388 10386 10384 10382 10381 10379 10377 10376 10374 10372 10371 10370 10369 10369 10369 10370 10370 10370 10370 10369 10369 10370 10370 10371 10371 10372 10374 10376 10378 10380 10381 10384 10386 10389 10393 10396 10401 10405 10409 10415 10420 10426 10433 10425 10413 10417 10424 10432 10445 10451 10452 10453 10454 10457 10461 10464 10465 10464 10464 10468
10455 10452 10449 10447 10444 10441 10438 10435 10432 10429 10426 10423 10421 10418 10415 10413 10412 10410 10409 10408 10406 10404 10403 10401 10398 10396 10394 10392 10391 10388 10386 10385 10383 10382 10380 10378 10377 10375 10374 10373 10372 10371 10370 10370 10370 10370 10371 10370 10370 10370 10370 10370 10371 10371 10372 10373 10374 10376 10377 10379 10381 10383 10386 10389 10393 10397 10400 10404 10408 10411 10417 10416 10406 10403 10412 10424 10434 10438 10438 10437 10438 10442 10446 10451 10453 10453 10453 10454
10456 10453 10450 10448 10445 10442 10439 10436 10433 10430 10427 10424 10422 10419 10416 10414 10411 10410 10408 10407 10407 10405 10404 10402 10400 10398 10396 10394 10392 10391 10389 10387 10385 10384 10383 10381 10380 10378 10377 10376 10375 10374 10373 10372 10372 10371 10371 10371 10370 10370 10369 10370 10370 10370 10371 10371 10372 10373 10374 10376 10377 10379 10381 10384 10387 10391 10393 10396 10397 10398 10405 10408 10399 10394 10404 10417 10421 10421 10419 10419 10423 10427 10431 10436 10439 10440 10440 10439
10457 10454 10451 10448 10446 10443 10440 10437 10434 10431 10428 10425 10423 10420 10418 10415 10412 10410 10408 10407 10407 10406 10404 10403 10401 10399 10397 10396 10394 10392 10391 10389 10387 10386 10384 10383 10382 10380 10378 10377 10375 10374 10373 10373 10373 10373 10373 10372 10371 10370 10369 10369 10369 10370 10370 10370 10370 10370 10371 10372 10373 10374 10376 10378 10381 10383 10384 10387 10387 10388 10394 10399 10395 10393 10398 10403 10405 10403 10401 10402 10406 10410 10414 10417 10420 10422 10423 10422
10458 10456 10453 10450 10447 10445 10442 10439 10436 10433 10430 10427 10424 10422 10419 10416 10413 10411 10409 10407 10406 10405 10404 10403 10401 10399 10398 10396 10395 10393 10392 10390 10389 10387 10386 10385 10384 10382 10381 10379 10377 10375 10373 10373 10372 10373 10373 10373 10373 10372 10371 10370 10369 10368 10368 10368 10368 10368 10368 10369 10370 10370 10371 10372 10374 10374 10375 10377 10378 10378 10382 10386 10389 10390 10388 10387 10390 10389 10385 10387 10389 10391 10395 10398 10400 10402 10403 10403
10460 10457 10454 10451 10449 10446 10444 10441 10438 10435 10432 10429 10426 10423 10420 10418 10415 10413 10410 10407 10405 10404 10403 10402 10401 10399 10398 10396 10395 10393 10392 10391 10389 10388 10387 10386 10385 10384 10383 10381 10379 10376 10374 10373 10371 10371 10371 10372 10372 10373 10372 10371 10370 10368 10367 10367 10366 10366 10366 10366 10367 10367 10367 10367 10367 10367 10368 10369 10370 10370 10371 10373 10378 10381 10378 10375 10378 10377 10373 10373 10374 10374 10377 10380 10382 10383 10385 10386
10461 10458 10455 10452 10450 10447 10445 10442 10439 10436 10434 10431 10428 10425 10421 10419 10416 10413 10410 10407 10405 10403 10403 10402 10401 10400 10398 10396 10394 10393 10392 10391 10389 10388 10386 10385 10385 10384 10383 10382 10380 10378 10375 10373 10371 10369 10368 10368 10369 10370 10371 10371 10370 10368 10367 10366 10365 10364 10363 10363 10363 10363 10363 10362 10362 10362 10362 10362 10362 10362 10361 10362 10365 10370 10369 10365 10365 10365 10363 10362 10361 10361 10363 10365 10365 10366 10368 10369
10462 10459 10456 10453 10450 10448 10446 10443 10441 10438 10435 10432 10429 10426 10423 10419 10416 10413 10410 10407 10405 10403 10402 10401 10401 10400 10399 10397 10395 10393 10392 10391 10389 10388 10386 10385 10384 10384 10383 10381 10380 10378 10376 10373 10371 10368 10366 10364 10363 10364 10365 10367 10367 10366 10365 10364 10363 10362 10361 10360 10359 10359 10358 10357 10357 10357 10357 10357 10356 10354 10353 10353 10354 10358 10359 10356 10353 10352 10350 10349 10347 10348 10351 10353 10353 10353 10355 10355
10462 10459 10457 10454 10451 10449 10447 10445 10442 10440 10437 10434 10431 10428 10425 10421 10418 10414 10411 10409 10406 10404 10402 10400 10400 10400 10399 10397 10395 10393 10392 10391 10390 10388 10387 10385 10384 10383 10382 10381 10380 10378 10376 10373 10370 10368 10365 10363 10360 10358 10358 10358 10360 10361 10361 10359 10358 10358 10358 10357 10356 10355 10353 10352 10351 10352 10352 10351 10349 10348 10347 10346 10345 10346 10348 10347 10343 10340 10338 10336 10334 10334 10337 10338 10338 10340 10342 10343